Voltar ao catálogo

GALILEO-FM2

AtivoNavegaçãoMEO
NORAD 37847·PAYLOAD·🇪🇺 EU

Lançado Oct 21, 2011 de Guiana Space Centre

Loading…

Próximas Passagens (próximas 24 horas)

TLE

AtualizadoSource: CelesTrak SupGP

Época: Sep 13, 2026, 23:59 UTC

1 37847C 11060B   26256.99979167  .00000000  00000+0  00000+0 0  2569
2 37847  56.9588 339.3532 0002200 312.3146  87.5696  1.70476249    16

Acompanhe GALILEO-FM2 em tempo real com AllMySat

Download on the App Store